Wind_Speed
27 27 26 26 27 28 28 28 28 28 29 30 30 30 29 29 31 31 32 32 33 33 34 34 34 35 35 35 37 37 39 40 40 40 41 42 40 40 40 40 40 41 40 39
28 28 28 29 29 29 29 29 28 28 29 30 31 30 30 30 31 31 32 33 33 33 34 35 35 35 36 36 37 38 39 39 40 40 40 40 40 40 40 41 40 40 40 40
29 28 28 29 29 30 30 30 29 30 30 31 32 32 30 31 31 32 32 32 33 34 34 35 36 36 37 37 38 39 39 40 41 40 40 41 41 41 40 40 41 42 42 41
29 29 29 30 29 30 31 31 31 32 32 32 32 34 31 31 32 32 32 32 33 34 35 36 37 37 38 38 38 39 39 40 41 41 41 41 42 42 42 41 42 44 44 44
30 29 30 30 30 31 32 32 33 33 34 34 33 35 33 32 33 33 33 33 34 35 36 37 38 38 39 39 38 39 40 40 41 42 42 42 43 44 44 44 44 44 44 45
31 31 31 30 31 32 33 33 33 34 34 35 34 35 35 32 32 33 34 34 34 35 37 38 38 38 39 39 39 39 40 41 41 41 42 43 44 44 44 44 45 44 45 45
31 31 31 30 31 32 32 32 33 35 36 36 34 36 35 33 32 32 33 34 34 35 36 38 39 39 39 39 39 39 40 40 41 42 43 44 45 45 45 45 45 46 46 46
32 32 32 32 32 32 33 33 34 36 37 37 36 37 35 34 33 33 33 34 35 36 37 39 40 40 41 40 40 39 40 41 41 42 43 45 45 46 47 47 46 46 47 48
32 33 33 33 33 33 33 34 35 37 38 39 39 37 35 35 35 35 35 35 35 36 37 38 39 40 41 41 40 40 41 41 42 43 43 44 46 46 47 48 48 48 48 49
33 34 33 33 33 32 33 33 34 35 37 38 38 36 35 34 35 34 35 35 35 35 36 37 37 38 39 40 40 40 41 41 42 43 44 45 46 46 46 47 48 49 49 49
32 33 33 33 33 32 32 32 33 35 37 39 39 37 35 35 35 34 34 34 35 36 37 37 37 38 39 40 40 40 41 41 42 43 43 44 45 47 48 48 49 49 50 50
32 33 33 33 33 33 33 34 34 36 38 39 40 38 36 36 35 35 36 36 37 37 38 38 38 39 40 40 40 40 41 42 43 43 43 44 45 46 47 48 49 49 50 51
32 33 34 34 35 35 35 34 36 37 38 39 40 39 37 38 37 37 38 38 38 39 39 40 40 41 41 41 41 41 41 42 43 43 44 44 45 46 48 49 50 50 50 51
33 34 34 35 35 36 35 35 36 38 39 41 40 39 38 39 39 39 39 39 40 40 40 40 41 42 42 42 42 42 42 42 43 44 44 45 45 46 47 49 50 51 52 52
34 35 35 34 34 35 36 35 37 39 40 42 41 41 39 40 40 39 39 40 41 41 40 41 41 42 42 42 43 43 43 44 44 44 45 46 46 47 48 49 50 51 52 52
35 36 36 36 35 36 37 37 38 39 40 41 42 41 39 41 41 41 41 41 42 41 41 41 41 42 43 43 43 43 44 45 45 45 46 47 48 49 50 50 51 52 53 54
35 36 37 37 37 39 39 37 38 39 39 40 41 39 39 40 41 42 42 43 43 42 41 41 41 42 43 44 44 44 45 45 45 46 47 48 49 50 51 52 52 53 55 56
34 35 37 38 38 39 38 38 39 39 39 40 40 39 39 40 40 40 42 43 43 42 42 42 42 42 43 44 44 44 45 45 46 46 47 48 49 50 51 52 53 54 55 56
33 34 36 37 39 40 37 38 39 39 39 38 39 40 40 40 40 40 41 42 42 42 42 42 43 43 43 44 44 45 45 45 45 45 46 47 49 50 51 51 52 53 54 55
34 34 35 36 38 40 37 37 37 39 39 38 38 39 40 40 40 39 39 39 39 40 41 42 42 43 43 44 44 44 45 45 45 45 45 47 47 48 49 50 51 52 53 53
34 34 35 36 37 37 36 37 37 38 38 38 39 39 40 40 40 39 39 38 38 38 39 41 42 43 44 44 45 45 45 45 45 46 46 46 47 48 48 49 49 50 50 51
35 36 37 37 37 36 36 37 37 38 38 38 38 39 40 41 41 40 39 38 38 38 39 40 42 43 44 44 45 44 45 45 45 46 46 46 47 47 47 48 48 49 48 49
37 37 38 38 38 37 37 37 37 38 38 38 39 39 40 40 41 41 40 40 40 39 39 40 41 42 43 44 44 44 44 45 45 45 46 46 46 46 46 46 46 47 47 48
37 38 39 40 39 39 39 39 39 39 40 40 40 40 41 41 41 42 42 42 42 42 41 41 42 43 43 44 44 44 44 45 45 45 45 46 45 45 46 46 46 45 46 46
37 38 39 39 39 39 39 40 40 41 41 42 42 42 42 42 42 42 43 44 44 43 43 43 43 43 43 44 44 44 45 45 45 45 45 45 45 45 45 45 44 44 45 46
36 37 38 39 39 40 40 40 40 41 41 42 42 43 43 43 43 43 43 43 44 45 45 45 45 45 45 45 45 45 45 45 45 45 44 44 43 43 43 43 43 44 45 45
Wind_Direction
269 269 272 273 271 269 268 269 270 270 270 269 269 268 268 268 264 262 262 262 260 258 257 256 256 255 255 254 254 254 254 254 253 254 252 250 249 251 251 250 250 251 251 251
270 271 272 272 271 269 269 269 269 271 271 271 269 268 269 269 267 265 264 263 261 260 259 256 254 255 256 256 256 256 255 255 254 254 252 250 249 251 251 249 248 249 250 251
272 273 273 273 271 270 270 271 270 272 273 273 273 270 269 270 268 266 265 263 261 260 258 257 256 256 257 257 256 255 255 255 255 254 252 251 250 250 251 250 250 249 249 251
272 273 273 273 272 272 272 272 271 272 274 274 275 274 271 272 268 266 265 264 262 261 260 258 258 258 258 258 257 256 256 255 255 254 252 252 251 251 252 251 252 251 250 251
273 273 273 273 273 272 273 273 273 273 274 275 276 276 274 274 271 269 266 265 262 261 261 260 261 260 260 260 258 257 256 256 256 255 254 254 253 253 253 253 253 252 251 252
272 272 274 275 273 271 272 272 273 274 275 275 277 278 277 275 274 271 268 266 263 261 261 262 263 262 261 261 259 258 258 258 257 256 255 254 254 254 254 254 253 252 252 252
272 271 273 275 274 272 272 272 274 275 274 275 277 278 280 279 275 272 270 268 265 263 262 262 263 262 261 260 258 257 258 259 258 257 256 254 254 254 254 254 254 252 252 252
274 273 274 274 275 274 274 273 272 275 277 278 279 280 281 280 277 274 272 270 269 266 264 262 262 262 260 260 258 258 260 260 260 259 257 255 254 254 254 253 254 254 253 253
276 276 276 276 276 275 274 273 273 274 277 278 280 282 281 281 279 276 273 271 270 267 266 265 264 263 261 260 259 260 261 261 260 259 259 257 256 255 256 255 255 256 256 256
277 278 277 278 277 276 276 275 274 274 277 279 281 283 283 283 281 279 275 271 269 268 267 266 265 264 262 261 261 260 261 262 262 261 260 259 258 258 257 256 255 256 257 258
276 277 278 278 277 277 277 276 275 274 276 279 282 283 284 285 283 280 277 274 271 269 268 267 265 264 263 263 263 262 262 263 263 262 261 260 258 258 258 258 258 257 258 258
276 277 277 277 277 277 277 276 276 277 277 278 281 283 284 284 282 279 278 276 273 271 269 267 265 264 264 264 264 264 263 262 263 262 261 260 259 259 259 258 258 258 258 258
277 277 278 279 278 277 277 277 277 277 277 278 280 283 284 284 283 281 280 277 275 273 271 268 265 264 264 264 265 265 265 264 263 263 262 261 260 260 259 258 258 258 257 258
278 277 278 279 279 278 277 277 277 277 278 279 280 282 282 283 282 281 280 278 275 275 273 270 267 266 265 265 265 266 266 266 265 263 262 261 261 261 260 259 258 258 258 259
278 278 278 278 278 277 277 277 278 278 280 281 283 282 282 282 281 280 279 278 276 275 273 271 269 268 267 266 266 267 266 266 266 264 262 262 262 262 261 260 259 259 258 259
279 280 279 278 279 279 278 279 279 280 280 281 282 283 283 282 280 279 279 279 278 276 273 271 271 270 269 268 267 267 267 267 267 266 264 263 263 263 263 262 260 260 260 260
280 282 282 281 280 280 280 282 281 280 281 281 282 284 283 281 279 279 279 279 278 276 273 272 272 271 271 270 269 270 269 269 268 268 266 264 263 263 263 262 262 261 261 261
281 282 282 282 282 282 285 284 283 282 281 281 282 282 282 282 281 280 280 279 278 275 272 271 271 271 270 270 270 270 270 271 270 269 267 265 264 264 264 263 263 263 262 261
282 283 284 285 285 285 287 287 286 283 282 282 282 282 283 282 282 281 280 279 278 275 271 271 270 270 270 270 271 271 271 271 271 270 269 268 267 266 265 264 263 263 263 262
281 283 285 286 287 289 291 289 287 284 282 282 283 283 283 283 282 283 282 281 279 275 273 272 271 271 271 271 273 273 272 271 271 271 270 269 269 268 266 265 265 264 263 262
281 283 284 285 288 290 292 291 289 286 285 284 284 284 284 284 282 282 282 280 278 274 273 273 273 273 273 273 273 274 273 272 271 271 272 272 271 269 268 267 266 265 264 263
281 283 284 285 287 291 292 291 289 287 286 286 286 285 285 284 283 281 281 281 279 276 275 275 275 275 274 273 274 274 274 273 273 273 273 273 271 270 269 268 268 266 264 262
279 282 283 284 287 289 289 288 287 286 286 286 286 286 286 285 284 282 281 280 280 278 277 277 276 275 274 274 275 274 274 273 273 273 273 273 273 271 270 269 268 267 265 263
279 279 282 284 286 286 286 286 287 286 287 287 286 286 286 286 286 283 281 279 278 277 277 278 277 276 276 276 275 274 273 273 274 274 274 274 274 272 270 270 268 266 265 264
279 280 283 284 286 285 285 285 286 287 288 288 287 287 286 286 286 286 284 281 279 277 277 278 279 279 278 278 277 276 275 275 275 275 275 275 274 273 271 270 268 265 264 263
281 283 284 285 285 284 285 285 286 287 287 287 287 287 287 287 287 287 286 284 281 278 278 278 279 279 279 279 278 277 276 276 275 275 275 274 273 273 272 270 268 267 266 263
Height
5695 5696 5695 5695 5694 5694 5693 5693 5694 5694 5694 5693 5693 5694 5695 5695 5695 5696 5696 5697 5698 5700 5701 5702 5704 5705 5706 5707 5709 5711 5713 5714 5716 5718 5720 5722 5724 5726 5728 5730 5732 5734 5737 5739
5690 5690 5689 5688 5687 5687 5687 5687 5687 5687 5686 5685 5686 5686 5687 5687 5687 5687 5688 5689 5690 5691 5693 5694 5695 5696 5697 5698 5700 5702 5703 5705 5706 5708 5710 5712 5714 5716 5718 5719 5721 5724 5726 5729
5683 5684 5682 5681 5680 5680 5680 5680 5680 5679 5679 5677 5677 5678 5680 5679 5679 5679 5680 5680 5681 5683 5684 5685 5686 5687 5688 5689 5691 5692 5693 5695 5696 5698 5700 5702 5704 5706 5708 5710 5712 5714 5717 5719
5676 5676 5675 5674 5674 5673 5673 5673 5672 5671 5670 5670 5670 5668 5672 5672 5671 5671 5672 5672 5672 5673 5674 5675 5676 5677 5678 5679 5680 5682 5683 5685 5686 5688 5690 5692 5695 5697 5699 5701 5702 5704 5706 5709
5669 5669 5668 5667 5668 5666 5666 5665 5664 5663 5662 5662 5662 5660 5663 5663 5663 5663 5663 5663 5664 5664 5665 5666 5667 5668 5668 5669 5670 5671 5673 5674 5676 5678 5680 5682 5684 5687 5688 5690 5692 5693 5696 5698
5661 5661 5660 5660 5660 5659 5658 5658 5656 5655 5654 5654 5655 5652 5653 5655 5655 5655 5655 5654 5654 5655 5656 5656 5657 5658 5658 5659 5660 5661 5663 5664 5666 5667 5669 5671 5673 5675 5677 5679 5681 5683 5685 5687
5653 5653 5653 5653 5652 5651 5650 5650 5648 5646 5645 5646 5646 5644 5645 5646 5647 5646 5646 5646 5645 5646 5646 5646 5647 5648 5648 5649 5650 5651 5653 5654 5655 5656 5658 5660 5662 5664 5666 5668 5670 5672 5674 5676
5645 5646 5646 5645 5644 5644 5643 5642 5641 5639 5637 5638 5637 5636 5639 5638 5638 5637 5637 5636 5636 5636 5636 5636 5637 5637 5638 5639 5640 5641 5642 5643 5644 5645 5646 5648 5650 5652 5654 5656 5658 5660 5663 5665
5637 5638 5638 5637 5636 5636 5634 5633 5633 5631 5629 5628 5628 5629 5630 5629 5628 5628 5628 5627 5626 5626 5626 5626 5626 5627 5628 5628 5629 5630 5631 5632 5633 5634 5635 5636 5638 5640 5642 5645 5646 5648 5651 5653
5628 5629 5629 5628 5628 5627 5626 5625 5624 5622 5620 5618 5619 5620 5621 5620 5619 5619 5618 5617 5617 5616 5616 5616 5616 5617 5617 5618 5619 5620 5620 5621 5622 5623 5624 5625 5626 5628 5630 5632 5634 5636 5638 5640
5620 5620 5620 5620 5619 5619 5619 5618 5615 5613 5612 5610 5609 5614 5613 5611 5610 5609 5608 5607 5607 5606 5606 5606 5606 5607 5607 5608 5608 5608 5609 5610 5610 5611 5612 5613 5614 5615 5617 5619 5621 5623 5625 5626
5612 5611 5611 5611 5611 5610 5609 5609 5607 5606 5604 5602 5600 5605 5603 5602 5599 5599 5598 5597 5596 5596 5595 5595 5595 5596 5596 5597 5597 5597 5597 5598 5598 5599 5600 5601 5602 5603 5604 5606 5608 5610 5611 5613
5603 5603 5602 5602 5603 5601 5600 5599 5598 5596 5595 5593 5592 5596 5594 5591 5589 5588 5587 5586 5585 5584 5584 5584 5584 5584 5585 5585 5585 5585 5585 5586 5586 5587 5587 5588 5589 5590 5591 5593 5594 5596 5598 5599
5594 5594 5594 5594 5592 5591 5591 5590 5589 5586 5585 5584 5584 5585 5585 5581 5578 5577 5576 5574 5574 5573 5572 5572 5573 5573 5573 5573 5573 5573 5573 5573 5573 5574 5574 5575 5576 5577 5578 5579 5581 5582 5584 5585
5585 5585 5584 5583 5582 5581 5581 5581 5579 5577 5575 5574 5574 5573 5574 5570 5567 5566 5565 5563 5562 5562 5561 5561 5561 5561 5561 5561 5561 5560 5560 5560 5560 5560 5561 5561 5562 5563 5564 5565 5566 5568 5569 5571
5576 5575 5574 5574 5573 5571 5570 5571 5569 5567 5565 5563 5562 5562 5562 5558 5556 5554 5553 5552 5551 5550 5550 5549 5549 5549 5549 5548 5548 5548 5547 5547 5546 5547 5547 5548 5548 5549 5550 5551 5552 5553 5554 5556
5567 5565 5564 5563 5562 5559 5560 5562 5559 5557 5555 5553 5550 5552 5549 5547 5545 5543 5542 5541 5539 5538 5538 5538 5537 5537 5536 5536 5535 5535 5534 5534 5533 5533 5533 5533 5534 5534 5535 5536 5537 5538 5539 5540
5557 5556 5553 5552 5552 5549 5554 5550 5548 5545 5544 5542 5540 5539 5537 5535 5533 5532 5530 5528 5527 5526 5526 5525 5525 5524 5524 5523 5522 5522 5521 5521 5520 5519 5519 5519 5519 5520 5520 5521 5521 5522 5523 5525
5548 5546 5544 5542 5540 5539 5542 5540 5536 5533 5534 5532 5529 5528 5526 5523 5522 5521 5519 5516 5515 5514 5513 5513 5512 5512 5511 5510 5509 5509 5508 5507 5506 5506 5505 5504 5505 5505 5505 5505 5506 5507 5508 5509
5539 5537 5536 5533 5530 5529 5533 5529 5525 5523 5522 5522 5518 5516 5514 5512 5511 5511 5507 5505 5503 5501 5500 5500 5499 5498 5498 5497 5496 5496 5495 5494 5493 5492 5491 5490 5490 5490 5490 5490 5490 5491 5491 5492
5530 5528 5527 5524 5520 5520 5521 5517 5514 5513 5513 5510 5507 5505 5503 5501 5499 5497 5495 5493 5491 5489 5488 5487 5487 5486 5484 5484 5483 5482 5481 5480 5479 5478 5477 5476 5476 5475 5475 5475 5475 5475 5476 5477
5521 5519 5517 5515 5512 5514 5511 5507 5505 5503 5500 5498 5496 5494 5491 5489 5487 5485 5483 5481 5479 5477 5476 5475 5474 5473 5471 5470 5470 5468 5467 5466 5465 5464 5463 5462 5461 5461 5460 5460 5460 5460 5460 5461
5512 5511 5508 5507 5507 5504 5500 5497 5494 5492 5489 5487 5485 5483 5480 5478 5475 5473 5472 5470 5468 5466 5464 5463 5461 5460 5459 5457 5456 5455 5454 5453 5452 5451 5449 5448 5447 5447 5446 5446 5446 5446 5446 5447
5502 5499 5497 5496 5496 5493 5490 5487 5484 5481 5479 5476 5474 5471 5469 5466 5464 5462 5460 5458 5456 5454 5452 5450 5449 5448 5446 5444 5443 5442 5440 5439 5438 5437 5436 5435 5434 5433 5432 5432 5432 5432 5432 5433
5491 5488 5486 5485 5484 5481 5479 5476 5473 5471 5468 5465 5463 5460 5457 5454 5452 5450 5447 5445 5443 5441 5439 5438 5436 5434 5433 5431 5430 5428 5427 5426 5425 5423 5422 5421 5420 5419 5418 5418 5418 5418 5418 5419
5481 5478 5476 5474 5473 5470 5468 5465 5462 5460 5457 5454 5451 5448 5445 5442 5440 5437 5434 5432 5430 5428 5426 5425 5423 5421 5420 5418 5416 5415 5413 5412 5411 5410 5409 5407 5406 5405 5405 5404 5404 5403 5404 5405